Theta_e
335 333 334 335 337 339 335 340 343 336 333 336 336 337 339 339 340 338 342 338 338 334 334 329 331 331 329 330 329 329 327 326
335 333 334 335 336 340 337 333 335 341 332 332 339 337 337 337 338 339 341 338 338 339 332 335 334 333 331 330 328 331 328 328
338 339 339 336 337 340 337 335 336 336 342 341 342 341 339 339 340 336 337 336 337 333 334 335 334 332 330 330 329 329 327 327
338 339 338 338 339 340 339 338 345 342 342 343 343 344 342 341 340 339 337 335 337 333 335 334 332 331 332 331 329 328 326 325
338 340 339 338 339 341 342 344 341 344 344 345 342 338 336 338 341 342 338 341 340 340 335 328 332 332 334 334 332 328 328 326
338 340 341 341 340 340 343 338 339 342 343 343 339 341 342 341 337 338 336 335 340 335 330 332 334 331 332 326 329 327 326 325
338 338 340 341 341 343 342 343 338 340 342 342 343 346 343 339 338 339 333 336 334 334 332 332 334 331 332 330 326 325 327 323
339 339 339 341 343 345 343 341 345 343 341 343 344 340 340 337 332 340 334 336 334 335 328 334 330 329 331 328 326 326 324 321
339 339 340 339 342 343 343 342 340 342 338 336 334 332 332 337 342 332 332 331 331 330 329 327 327 330 329 329 327 325 325 325
335 338 339 339 340 339 342 337 344 342 340 340 338 336 336 335 333 334 332 331 329 327 329 326 329 325 324 322 323 321 321 325
333 335 337 337 335 334 338 337 341 341 336 334 335 332 335 333 331 331 330 329 328 328 328 327 327 327 321 321 321 320 316 322
331 334 335 333 332 334 337 338 328 323 326 331 329 326 323 325 329 331 328 329 331 327 328 322 326 326 322 319 321 321 319 315
331 333 335 331 334 331 333 328 325 326 323 327 325 329 331 327 330 333 334 333 335 324 323 325 325 325 323 322 321 320 319 318
332 336 337 330 327 329 331 329 331 330 334 337 328 328 332 329 330 329 325 325 325 326 327 325 323 324 322 322 322 321 319 320
332 332 336 335 329 331 332 328 328 324 327 326 328 328 326 330 330 330 325 322 324 326 327 326 324 324 323 322 320 319 319 317
323 327 327 326 326 326 326 323 322 319 325 326 330 331 329 328 327 327 326 324 321 324 323 322 321 321 320 321 319 319 319 319
323 324 324 323 324 323 322 321 322 324 322 327 331 330 329 325 325 324 322 320 318 317 319 318 319 320 320 319 317 317 318 318
323 325 324 323 323 322 324 325 326 327 329 326 326 326 320 321 321 321 321 320 319 318 317 317 316 318 318 318 317 317 317 319
323 323 320 320 320 319 322 322 322 324 323 323 320 320 319 318 317 317 317 317 317 316 316 315 314 314 317 316 316 316 316 317
319 318 319 318 317 317 319 322 320 320 319 319 318 318 317 316 316 314 313 311 312 312 311 311 312 313 313 313 314 317 316 316
Wind_Speed
15 14 14 13 11 6 13 7 5 8 7 7 6 6 6 6 5 3 2 2 4 5 4 5 5 12 6 9 9 8 8 4
16 14 12 11 12 9 9 12 8 6 6 5 3 3 3 4 4 6 3 3 1 3 3 2 3 2 4 4 3 2 3 4
15 11 8 13 12 10 9 11 10 7 2 3 1 2 1 4 1 5 3 1 1 3 4 3 4 4 4 3 2 3 4 5
15 13 10 9 13 12 10 9 7 7 4 4 1 3 4 3 2 2 5 3 2 2 4 5 5 4 2 3 3 3 4 6
14 12 9 9 11 12 9 6 9 6 4 3 3 5 5 5 4 6 5 4 3 2 2 5 5 4 3 3 4 5 5 6
13 13 10 9 9 13 12 9 12 8 5 4 6 3 3 3 2 3 6 6 1 3 4 7 3 3 3 4 3 4 4 6
9 11 12 11 11 9 11 6 10 11 7 4 6 3 3 5 5 1 4 4 6 6 3 4 4 3 4 4 4 4 3 5
14 14 14 12 9 9 9 7 5 9 7 6 3 4 3 4 3 2 4 2 1 4 4 4 3 2 4 5 9 6 5 6
17 15 13 13 9 8 6 8 9 6 6 4 6 5 4 6 2 6 2 1 1 3 2 4 5 3 5 5 5 6 7 7
16 14 14 10 10 8 8 5 7 7 5 3 1 2 3 2 2 2 3 3 3 4 2 1 2 3 5 7 7 7 6 4
16 16 13 11 12 12 7 8 7 7 4 2 2 4 5 4 3 4 5 6 5 4 5 3 2 2 3 6 8 9 8 4
13 14 11 18 15 2 5 2 10 14 19 5 10 5 3 5 2 1 4 5 5 4 3 2 6 2 4 5 6 6 6 7
9 8 10 18 15 10 6 4 6 3 10 15 5 4 4 4 3 5 4 3 2 1 7 6 3 3 4 6 6 8 6 6
13 12 13 14 11 6 3 3 3 10 14 10 7 5 5 5 4 4 8 4 6 7 3 3 2 6 7 5 5 7 8 7
9 7 9 8 9 5 8 6 5 5 6 9 7 4 7 6 4 3 5 6 7 6 6 3 4 5 7 6 7 6 9 8
14 17 13 17 14 10 15 9 4 5 3 7 6 3 4 5 6 5 4 5 7 8 8 8 10 9 9 8 6 6 9 7
6 17 10 6 11 12 9 5 3 3 4 5 4 5 6 7 7 6 4 5 6 9 10 12 12 10 8 9 7 8 9 9
15 13 12 10 8 4 2 3 4 4 3 3 6 8 6 2 3 6 8 8 9 9 10 11 11 11 9 9 9 10 9 6
9 12 10 6 3 0 5 4 7 7 10 8 7 6 9 10 9 9 10 10 11 11 12 11 11 8 8 9 11 11 10 9
12 10 5 7 6 10 7 7 10 9 10 10 9 9 9 8 8 8 8 7 8 10 11 9 10 11 12 11 13 8 9 10
Wind_Direction
188 196 186 175 152 147 142 123 138 189 140 173 196 182 180 191 190 176 179 306 222 220 221 192 206 229 233 214 236 241 260 356
192 203 196 171 152 147 144 154 177 233 151 195 141 156 165 193 156 181 200 227 204 350 300 11 259 239 243 240 257 3 316 279
193 208 213 154 153 153 204 165 180 163 251 130 275 15 226 48 225 150 183 339 314 284 291 303 278 256 246 262 325 355 330 288
192 199 197 156 150 162 198 182 127 127 194 189 174 192 214 191 191 220 175 206 256 315 318 308 306 307 313 342 351 322 272 268
193 187 185 178 151 159 199 170 137 143 201 187 230 262 210 189 173 177 190 209 246 292 357 285 286 270 309 293 265 261 257 249
196 175 177 173 172 175 181 194 152 163 194 206 226 274 342 339 297 199 187 192 173 230 241 253 302 353 297 295 266 268 279 298
178 173 174 178 192 173 158 194 164 166 195 226 224 275 247 234 255 33 143 183 212 233 230 275 284 337 334 311 286 254 276 290
174 174 174 184 189 149 155 170 221 169 186 201 264 254 273 300 250 174 163 192 309 43 346 340 359 17 300 294 291 290 283 275
175 178 180 173 168 148 157 183 191 192 185 201 233 224 214 227 186 127 122 91 56 35 316 344 351 323 280 272 279 289 292 288
175 168 172 151 148 137 158 215 221 205 191 188 337 5 323 334 295 305 176 151 207 210 154 237 263 331 316 295 286 280 265 273
164 172 175 159 148 135 185 212 232 340 235 36 311 12 292 257 229 220 149 193 237 207 198 198 237 253 277 328 309 306 299 276
167 180 144 84 76 20 244 161 76 63 360 293 246 218 251 248 229 229 198 220 229 208 52 36 278 301 314 282 287 302 305 284
115 113 100 112 143 195 214 40 63 92 172 230 255 249 341 355 356 7 345 291 264 152 244 213 208 226 244 276 287 296 289 281
114 92 98 147 163 168 125 231 178 205 205 213 222 249 315 325 300 348 312 20 294 231 180 171 192 268 257 264 262 272 278 272
16 129 165 127 105 217 140 103 85 272 43 348 317 285 214 263 289 286 330 322 329 344 11 323 275 281 291 276 273 261 271 269
340 24 88 87 111 100 107 134 85 25 61 279 313 354 340 334 13 20 325 338 326 334 326 330 308 292 285 288 285 263 266 267
159 86 88 64 94 86 70 111 188 263 251 267 294 32 35 32 12 355 334 296 315 324 325 317 304 296 297 290 283 266 260 266
104 101 98 87 76 85 153 10 332 301 311 23 20 27 29 1 328 339 344 333 322 309 298 290 294 286 285 283 288 283 282 273
105 109 89 67 139 19 43 55 4 34 46 35 26 10 16 10 1 347 336 330 320 309 308 315 305 283 292 294 290 275 278 278
60 71 42 24 28 35 26 36 27 11 22 18 15 22 14 351 1 4 339 332 329 320 310 300 299 298 296 284 280 293 287 277